Date String (YYYY-MM-DD hh:mm:ss) UTC,Instrument flags,absolute air pressure of the measurement (hPa),sample flow rate (lpm),inlet stack bypass flow (lpm),air temperature of the measurement (°C),ambient temperature measured by the external sensor (°C),aerosol sample conditioner tube jacket temperature (°C),OPC LED temperature (°C),internal box temperature (°C),relative humidity of the measurement (%),span deviation,mass concentration of particles derived from Lorenz-Mie calculation of OPC scattering (μg/m³),mass concentration of particles derived from Lorenz-Mie calculation of OPC scattering (μg/m³),mass concentration of particles derived from Lorenz-Mie calculation of OPC scattering (μg/m³)
DateTimeUTC,F1_M11,P_M11,Q1_M11,Q2_M11,T1_M11,T2_M11,T3_M11,T4_M11,T5_M11,U1_M11,ZSPAN_M11,X2_M11,X0_M11,X1_M11
2023-09-02 17:00:00,SystemResetWarning,0834.4,5.01,000.00,027.7,024.4,000.0,035.9,029.0,27.4,0000.0,0004.26,0011.43,0003.53
2023-09-02 17:01:00,SystemResetWarning,0834.4,5.01,000.00,027.7,024.6,000.0,035.9,029.0,27.8,0000.0,0004.28,0011.48,0003.54
2023-09-02 17:02:00,SystemResetWarning,0834.4,5.00,000.00,027.6,025.0,000.0,035.9,029.1,27.2,0000.0,0004.30,0011.09,0003.54
2023-09-02 17:03:00,SystemResetWarning,0834.4,5.00,000.00,027.7,025.4,000.0,036.0,029.2,28.0,0000.0,0004.33,0011.16,0003.55
2023-09-02 17:04:00,SystemResetWarning,0834.4,5.00,000.00,027.7,025.8,000.0,036.0,029.3,28.9,0000.0,0004.34,0011.48,0003.56
2023-09-02 17:05:00,SystemResetWarning,0834.5,5.00,000.00,027.7,026.2,000.0,036.0,029.4,28.8,0000.0,0004.31,0011.75,0003.55
2023-09-02 17:06:00,SystemResetWarning,0834.5,5.00,000.00,027.8,026.5,000.0,036.0,029.6,28.9,0000.0,0004.28,0011.07,0003.53
2023-09-02 17:07:00,SystemResetWarning,0834.5,5.00,000.00,027.9,026.5,000.0,036.0,029.6,28.6,0000.0,0004.28,0010.63,0003.53
2023-09-02 17:08:00,SystemResetWarning,0834.5,4.98,000.00,027.8,025.3,000.0,036.0,029.2,28.1,0000.0,0004.27,0010.34,0003.52
2023-09-02 17:09:00,SystemResetWarning,0834.4,5.00,000.00,027.7,024.4,000.0,035.9,029.0,28.7,0000.0,0004.27,0010.84,0003.52
2023-09-02 17:10:00,SystemResetWarning,0834.4,5.01,000.00,027.7,024.6,000.0,035.9,029.0,28.4,0000.0,0004.29,0011.57,0003.53
2023-09-02 17:11:00,SystemResetWarning,0834.4,5.01,000.00,027.6,024.9,000.0,035.9,029.0,27.9,0000.0,0004.29,0011.25,0003.52
2023-09-02 17:12:00,SystemResetWarning,0834.4,4.99,000.00,027.6,025.3,000.0,035.9,029.2,27.1,0000.0,0004.26,0010.82,0003.51
2023-09-02 17:13:00,SystemResetWarning,0834.5,5.00,000.00,027.7,025.8,000.0,036.0,029.3,27.1,0000.0,0004.25,0010.83,0003.50
2023-09-02 17:14:00,SystemResetWarning,0834.4,5.00,000.00,027.7,026.1,000.0,036.0,029.4,26.1,0000.0,0004.24,0010.97,0003.49
2023-09-02 17:15:00,SystemResetWarning,0834.4,5.00,000.00,027.8,026.4,000.0,036.0,029.5,26.0,0000.0,0004.27,0011.19,0003.49
2023-09-02 17:16:00,SystemResetWarning,0834.4,4.99,000.00,027.8,025.9,000.0,036.0,029.4,26.2,0000.0,0004.31,0011.52,0003.50
2023-09-02 17:17:00,SystemResetWarning,0834.3,5.00,000.00,027.7,024.6,000.0,035.9,028.9,26.9,0000.0,0004.34,0011.63,0003.51
2023-09-02 17:18:00,SystemResetWarning,0834.4,5.01,000.00,027.6,024.3,000.0,035.8,028.8,27.7,0000.0,0004.37,0011.74,0003.51
2023-09-02 17:19:00,SystemResetWarning,0834.3,5.01,000.00,027.6,024.6,000.0,035.8,028.9,28.1,0000.0,0004.38,0011.81,0003.52
2023-09-02 17:20:00,SystemResetWarning,0834.3,5.00,000.00,027.5,025.0,000.0,035.9,029.0,28.9,0000.0,0004.39,0011.08,0003.53
2023-09-02 17:21:00,SystemResetWarning,0834.3,5.00,000.00,027.6,025.4,000.0,035.9,029.1,29.2,0000.0,0004.37,0010.55,0003.53
2023-09-02 17:22:00,SystemResetWarning,0834.4,5.00,000.00,027.6,025.8,000.0,035.9,029.3,29.1,0000.0,0004.39,0011.25,0003.54
2023-09-02 17:23:00,SystemResetWarning,0834.3,5.00,000.00,027.7,026.1,000.0,035.9,029.4,28.7,0000.0,0004.42,0012.24,0003.55
2023-09-02 17:24:00,SystemResetWarning,0834.3,5.01,000.00,027.7,026.4,000.0,036.0,029.5,28.9,0000.0,0004.44,0012.64,0003.56
2023-09-02 17:25:00,SystemResetWarning,0834.3,5.00,000.00,027.8,026.5,000.0,036.0,029.6,28.2,0000.0,0004.44,0012.50,0003.57
2023-09-02 17:26:00,SystemResetWarning,0834.4,4.98,000.00,027.8,025.3,000.0,035.9,029.2,28.2,0000.0,0004.45,0012.09,0003.57
2023-09-02 17:27:00,SystemResetWarning,0834.3,5.02,000.00,027.6,024.3,000.0,035.9,028.8,28.0,0000.0,0004.42,0011.63,0003.57
2023-09-02 17:28:00,SystemResetWarning,0834.5,5.00,000.00,027.6,024.4,000.0,035.8,028.8,28.4,0000.0,0004.43,0011.70,0003.58
2023-09-02 17:29:00,SystemResetWarning,0834.3,4.99,000.00,027.5,024.7,000.0,035.8,028.9,28.7,0000.0,0004.41,0011.55,0003.58
2023-09-02 17:30:00,SystemResetWarning,0834.3,5.00,000.00,027.5,025.1,000.0,035.9,029.0,29.8,0000.0,0004.38,0011.96,0003.59
2023-09-02 17:31:00,SystemResetWarning,0834.3,5.00,000.00,027.6,025.5,000.0,035.9,029.2,29.3,0000.0,0004.39,0011.88,0003.58
2023-09-02 17:32:00,SystemResetWarning,0834.4,5.00,000.00,027.6,025.9,000.0,035.9,029.3,29.3,0000.0,0004.41,0011.87,0003.58
2023-09-02 17:33:00,SystemResetWarning,0834.3,5.00,000.00,027.7,026.3,000.0,035.9,029.4,28.9,0000.0,0004.41,0011.25,0003.58
2023-09-02 17:34:00,SystemResetWarning,0834.4,5.00,000.00,027.7,026.4,000.0,035.9,029.5,29.0,0000.0,0004.46,0011.11,0003.59
2023-09-02 17:35:00,SystemResetWarning,0834.3,4.98,000.00,027.7,025.3,000.0,035.9,029.1,29.4,0000.0,0004.48,0010.81,0003.59
2023-09-02 17:36:00,SystemResetWarning,0834.5,5.01,000.00,027.6,024.2,000.0,035.8,028.8,28.9,0000.0,0004.49,0010.98,0003.61
2023-09-02 17:37:00,SystemResetWarning,0834.7,5.01,000.00,027.5,024.2,000.0,035.8,028.9,28.5,0000.0,0004.50,0011.20,0003.61
2023-09-02 17:38:00,SystemResetWarning,0834.6,4.99,000.00,027.5,024.5,000.0,035.8,028.9,28.9,0000.0,0004.50,0010.76,0003.62
2023-09-02 17:39:00,SystemResetWarning,0834.6,4.99,000.00,027.5,025.0,000.0,035.8,029.0,28.6,0000.0,0004.47,0010.63,0003.62
2023-09-02 17:40:00,SystemResetWarning,0834.4,5.00,000.00,027.5,025.4,000.0,035.8,029.1,28.0,0000.0,0004.48,0011.04,0003.62
2023-09-02 17:41:00,SystemResetWarning,0834.6,5.00,000.00,027.6,025.8,000.0,035.9,029.3,28.2,0000.0,0004.49,0010.67,0003.62
2023-09-02 17:42:00,SystemResetWarning,0834.3,5.01,000.00,027.6,026.1,000.0,035.9,029.4,28.3,0000.0,0004.47,0010.86,0003.62
2023-09-02 17:43:00,SystemResetWarning,0834.5,4.99,000.00,027.7,026.4,000.0,035.9,029.5,27.5,0000.0,0004.43,0011.82,0003.62
2023-09-02 17:44:00,SystemResetWarning,0834.4,5.00,000.00,027.8,026.6,000.0,035.9,029.6,28.1,0000.0,0004.41,0011.91,0003.63
2023-09-02 17:45:00,SystemResetWarning,0834.4,4.99,000.00,027.8,025.7,000.0,035.9,029.2,28.4,0000.0,0004.39,0011.26,0003.63
2023-09-02 17:46:00,SystemResetWarning,0834.2,5.01,000.00,027.6,024.5,000.0,035.8,028.8,29.1,0000.0,0004.41,0011.14,0003.63
2023-09-02 17:47:00,SystemResetWarning,0834.2,5.01,000.00,027.5,024.4,000.0,035.8,028.8,29.1,0000.0,0004.43,0011.24,0003.62
2023-09-02 17:48:00,SystemResetWarning,0834.2,5.00,000.00,027.5,024.7,000.0,035.8,028.9,28.7,0000.0,0004.42,0011.14,0003.62
2023-09-02 17:49:00,SystemResetWarning,0834.2,5.00,000.00,027.5,025.0,000.0,035.8,029.0,28.5,0000.0,0004.39,0011.51,0003.61
2023-09-02 17:50:00,SystemResetWarning,0834.2,5.00,000.00,027.5,025.4,000.0,035.8,029.1,28.4,0000.0,0004.39,0011.62,0003.60
2023-09-02 17:51:00,SystemResetWarning,0834.3,5.00,000.00,027.6,025.8,000.0,035.9,029.3,28.2,0000.0,0004.40,0011.32,0003.60
2023-09-02 17:52:00,SystemResetWarning,0834.2,5.00,000.00,027.7,026.2,000.0,035.9,029.4,28.1,0000.0,0004.39,0012.17,0003.56
2023-09-02 17:53:00,SystemResetWarning,0834.3,4.99,000.00,027.7,026.4,000.0,035.9,029.5,28.0,0000.0,0004.37,0012.76,0003.54
2023-09-02 17:54:00,SystemResetWarning,0834.2,4.98,000.00,027.7,025.6,000.0,035.9,029.2,28.2,0000.0,0004.43,0011.82,0003.53
2023-09-02 17:55:00,SystemResetWarning,0834.1,5.02,000.00,027.6,024.4,000.0,035.8,028.8,28.5,0000.0,0004.48,0011.68,0003.52
2023-09-02 17:56:00,SystemResetWarning,0834.1,5.01,000.00,027.5,024.2,000.0,035.8,028.8,28.7,0000.0,0004.46,0011.62,0003.50
2023-09-02 17:57:00,SystemResetWarning,0834.2,5.00,000.00,027.5,024.5,000.0,035.8,028.8,29.4,0000.0,0004.38,0011.43,0003.48
2023-09-02 17:58:00,SystemResetWarning,0834.1,5.00,000.00,027.5,024.9,000.0,035.8,028.9,28.2,0000.0,0004.31,0011.33,0003.48
2023-09-02 17:59:00,SystemResetWarning,0834.1,5.01,000.00,027.5,025.4,000.0,035.8,029.1,29.0,0000.0,0004.29,0011.23,0003.48
